Regional Weather Roundup
Issued by NWS

Home | Current Version | Previous Version | Graphics & Text | Print | Product List | Glossary On
Versions: 1 2 3 4 5 6 7 8 9 10 11 12 13 14 15 16 17 18 19 20 21 22 23 24 25 26 27 28 29 30 31 32 33 34 35 36 37 38 39 40 41 42 43 44 45 46 47 48 49 50
393
ASUS43 KMKX 131420
RWRWI

WISCONSIN REGIONAL WEATHER ROUNDUP
NATIONAL WEATHER SERVICE MILWAUKEE/SULLIVAN WI
800 AM CST SAT FEB 13 2016

NOTE: "FAIR" INDICATES FEW OR NO CLOUDS BELOW 12,000 FEET WITH NO
SIGNIFICANT WEATHER AND/OR OBSTRUCTIONS TO VISIBILITY.

WIZ001-002-006>008-014>016-023>028-131500-
NORTHWEST WISCONSIN

CITY           SKY/WX    TMP DP  RH WIND       PRES   REMARKS
SUPERIOR ARPT  CLOUDY   -13 -20  69 NW5       30.64S WCI -25
ASHLAND        CLOUDY    -9 -13  83 SW9       30.59R WCI -26
HAYWARD        CLOUDY   -18 -24  74 CALM      30.56R
SIREN          CLOUDY   -16 -22  73 CALM      30.61S
CUMBERLAND     PTCLDY   -15 -22  70 W5        30.57R WCI -27
RICE LAKE      PTCLDY   -12 -19  71 CALM      30.60R
CHETEK         PTCLDY   -12 -16  82 CALM      30.61R
LADYSMITH      CLOUDY   -16 -22  73 CALM      30.56R
EAU CLAIRE     CLOUDY   -10 -18  67 W6        30.62R WCI -23
MENOMONIE      CLOUDY    -7 -16  63 W5        30.63R WCI -18
NEW RICHMOND   CLOUDY   -10 -17  73 CALM      30.62R
OSCEOLA        CLOUDY    -9 -15  74 CALM      30.66S
$$

WIZ003>005-009-010-017-018-131500-
NORTH CENTRAL WISCONSIN

CITY           SKY/WX    TMP DP  RH WIND       PRES   REMARKS
MANITOWISH WTR CLOUDY    -7 -12  81 W9        30.43R WCI -24
ARBOR VITAE    CLOUDY    -9 -14  77 CALM      30.43R
WOODRUFF       CLOUDY    -9 -14  77 CALM      30.43R
RHINELANDER    CLOUDY   -11 -17  75 W7        30.43R WCI -26
EAGLE RIVER    CLOUDY    -8 -15  72 W7        30.40S WCI -23
LAND O LAKES   LGT SNOW  -4  -9  79 W6        30.39S WCI -17
PHILLIPS       PTCLDY   -15 -19  81 CALM      30.49R
TOMAHAWK       CLOUDY   -13 -18  79 W6        30.47S WCI -27
MEDFORD        CLOUDY   -13 -19  73 W6        30.50R WCI -27
MERRILL        CLOUDY   -11 -17  75 CALM      30.50R
$$

WIZ029-030-035-036-043>047-131500-
CENTRAL WISCONSIN

CITY           SKY/WX    TMP DP  RH WIND       PRES   REMARKS
WAUSAU         CLOUDY    -9 -16  71 NW8       30.51R WCI -25
MOSINEE        CLEAR     -9 -17  70 NW7       30.52R WCI -24
MARSHFIELD     CLOUDY    -9 -19  61 NW13      30.52R WCI -29
STEVENS POINT  CLOUDY    -9 -17  67 NW6       30.55R WCI -23
WAUPACA        CLOUDY    -3 -13  59 NW7       30.56R WCI -16
WAUTOMA        MOCLDY    -6 -18  56 W9        30.58R WCI -23
WISC RAPIDS    CLOUDY    -8 -18  61 NW7       30.57R WCI -23
CAMP DOUGLAS   CLEAR     -9 -18  64 NW7       30.59R WCI -24
$$

WIZ011>013-019>022-031-037>040-048>050-131500-
NORTHEAST WISCONSIN

CITY           SKY/WX    TMP DP  RH WIND       PRES   REMARKS
ANTIGO         CLOUDY   -10 -15  79 W8        30.44S WCI -27
SHAWANO        PTCLDY    -3 -11  66 W7        30.54R WCI -16
OCONTO         CLEAR     -4 -12  70 W5        30.52S WCI -15
STURGEON BAY   CLEAR     -2 -11  65 NW10      30.50R WCI -19
GREEN BAY      CLEAR     -4 -12  68 NW12      30.54R WCI -22
MANITOWOC      SUNNY     -1 -10  65 W13       30.53R WCI -19
APPLETON       CLEAR     -6 -17  59 W14       30.50S WCI -26
CLINTONVILLE   CLOUDY    -4 -13  65 NW7       30.53S WCI -18
OSHKOSH        CLOUDY    -5 -15  62 W9        30.54R WCI -22
$$

WIZ032>034-041-042-053>061-131500-
SOUTHWEST WISCONSIN

CITY           SKY/WX    TMP DP  RH WIND       PRES   REMARKS
LA CROSSE      CLOUDY    -5 -16  59 N3        30.65R
SPARTA         CLOUDY   -15 -21  74 CALM      30.62S
VIROQUA        CLOUDY    -5 -17  57 CALM      30.54S
BOSCOBEL       CLOUDY    -8 -13  78 SW3       30.64R
PRAIRIE DU CHI CLOUDY    -4 -14  63 CALM      30.65R
PLATTEVILLE    CLOUDY    -3 -11  69 W3        30.59R
$$

WIZ056-057-062-063-064-067-068-131500-
SOUTH CENTRAL WISCONSIN

CITY           SKY/WX    TMP DP  RH WIND       PRES   REMARKS
REEDSBURG      PTCLDY    -6 -16  61 W6        30.58S WCI -18
BARABOO/DELLS  PTCLDY    -4 -16  56 NW7       30.57S WCI -18
LONE ROCK      CLOUDY    -3 -15  56 W3        30.62R
MINERAL POINT  PTCLDY     0 -15  50 NW3       30.56R
MADISON        CLOUDY    -2 -15  54 N10       30.57R WCI -19
MIDDLETON      CLOUDY    -1 -13  57 NW6       30.58S WCI -13
WATERTOWN      CLEAR     -2 -12  61 NW8       30.56R WCI -16
MONROE         CLEAR      1 -11  55 NW6       30.55S WCI -10
JANESVILLE     CLEAR      3 -11  51 NW8       30.58  WCI -10
$$

WIZ051-052-058>065-066-070>072-131500-
SOUTHEAST WISCONSIN

CITY           SKY/WX    TMP DP  RH WIND       PRES   REMARKS
MILWAUKEE      MOSUNNY    1 -12  54 NW13      30.55R WCI -17
WAUKESHA       SUNNY     -2 -15  55 NW15      30.55R WCI -22
MILWAUKEE/TIMM SUNNY      0 -15  50 NW8       30.56R WCI -15
RACINE         SUNNY      1 -12  54 NW14      30.57R WCI -17
BURLINGTON     SUNNY     -1 -12  58 NW9       30.56R WCI -16
KENOSHA        SUNNY      1 -11  57 NW10      30.56R WCI -15
FOND DU LAC    CLOUDY    -3 -14  59 NW13      30.54R WCI -22
SHEBOYGAN      SUNNY     -2 -12  62 NW13      30.52S WCI -20
WEST BEND      SUNNY      0 -13  55 NW12      30.52S WCI -18
JUNEAU         CLOUDY    -4 -15  61 W6        30.56S WCI -17
$$

LSZ147-162-131500-
LAKE SUPERIOR

STATION/POSITION TIME  TEMP    WIND        PRES    WAVE
                       AIR SEA DIR/SP/G            HT/PER
                 (UTC) (F)     (DEG/KT/KT) (MB)    (FT/S)
DEVILS ISLAND    1400    1     250/  9/ 11 1037.6R
SAXON HARBOR     1340   -2                 1034.9R
$$

LMZ867-665-643>646-131500-
LAKE MICHIGAN

STATION/POSITION TIME  TEMP    WIND        PRES    WAVE
                       AIR SEA DIR/SP/G            HT/PER
                 (UTC) (F)     (DEG/KT/KT) (MB)    (FT/S)
CHAMBERS ISLAND  1300   -1     270/  6/ 12 1031.5R
SISTER BAY       1349    3     330/ 21/ 26   N/A
ALGOMA LAKESHORE 1311          330/  8/ 11   N/A
KEWAUNEE LAKESHO 1300   -3     300/  9/ 13 1031.9R
SHEBOYGAN LAKESH 1400   -1     290/ 14/ 19 1035.9R
PORT WASHINGTON  1300   -1     300/  9/ 13 1034.9R
MILWAUKEE LAKESH 1310    1     290/ 12/ 15   N/A
KENOSHA   LAKESH 1400    1     300/ 15/ 18 1034.5R
$$

TC  - TEMPERATURE IN CELSIUS
VSB - VISIBILITY IN STATUTE MILES
WCI - WIND CHILL INDEX
HX  - HEAT INDEX





USA.gov is the U.S. government's official web portal to all federal, state and local government web resources and services.